Location: Beuerbach
(48.1459°N, 10.9174°E)
Time: 01:48:37
(UTC+00:00)

COBE Rocket - Pass Details

Date: 23 May 2024
Orbit: 678 x 776 km, 97.1° (Epoch: 19 June)

Event Time Altitude Azimuth Distance (km) Brightness Sun altitude
Rises 00:38:40 0° 16° (NNE) 3,130 8.9 -18.6°
Reaches altitude 10° 00:40:59 10° 22° (NNE) 2,220 7.7 -18.5°
Maximum altitude 00:45:45 51° 98° (E) 927 4.5 -18.2°
Enters shadow 00:48:29 24° 163° (SSE) 1,493 5.1 -18.0°
